When you browse on this site, cookies collect data to enhance your experience and personalize the content and advertising you see.
Visit our Privacy Policy to learn more. By continuing to use the site, you agree to this use of cookies and data.
  • In Netherlands
  • List of Countries
  • For 7 days
  • Water Temperature
  • Satellite Maps
  • Weather Map
  • Weather Widgets
  • user-avatar
    Login

    Hourly Weather Rogoźno

    Today, 23 April, Tuesday

    Time Temperature Precipitation Wind Pressure Humidity
    00:00 +9°C° 0 mm 6 mps 758 mmHg 60%
    01:00 +9°C° 0 mm 6 mps 758 mmHg 61%
    02:00 +8°C° 0 mm 6 mps 758 mmHg 59%
    03:00 +8°C° 0 mm 7 mps 758 mmHg 58%
    04:00 +8°C° 0 mm 7 mps 757 mmHg 56%
    05:00 +7°C° 0 mm 8 mps 757 mmHg 56%
    06:00 +8°C° 0 mm 9 mps 757 mmHg 55%
    07:00 +8°C° 0 mm 9 mps 757 mmHg 54%
    08:00 +11°C° 0 mm 9 mps 757 mmHg 52%
    09:00 +12°C° 0 mm 10 mps 756 mmHg 49%
    10:00 +13°C° 0 mm 10 mps 756 mmHg 46%
    11:00 +14°C° 0 mm 10 mps 756 mmHg 46%
    12:00 +16°C° 0 mm 10 mps 755 mmHg 45%
    13:00 +17°C° 0 mm 10 mps 755 mmHg 45%
    14:00 +17°C° 0 mm 10 mps 754 mmHg 46%
    15:00 +18°C° 0 mm 10 mps 754 mmHg 47%
    16:00 +18°C° 0 mm 9 mps 754 mmHg 48%
    17:00 +17°C° 0.1 mm 8 mps 753 mmHg 52%
    18:00 +15°C° 0.1 mm 7 mps 753 mmHg 57%
    19:00 +14°C° 0.1 mm 6 mps 753 mmHg 61%
    20:00 +14°C° 0.1 mm 6 mps 753 mmHg 59%
    21:00 +14°C° 0.1 mm 7 mps 753 mmHg 56%
    22:00 +12°C° 0.1 mm 8 mps 753 mmHg 54%
    23:00 +12°C° 0 mm 8 mps 753 mmHg 54%

    Tomorrow, 24 April, Wednesday

    Time Temperature Precipitation Wind Pressure Humidity
    00:00 +12°C° 0 mm 7 mps 753 mmHg 55%
    01:00 +12°C° 0 mm 7 mps 753 mmHg 55%
    02:00 +11°C° 0 mm 7 mps 753 mmHg 56%
    03:00 +11°C° 0 mm 7 mps 752 mmHg 57%
    04:00 +11°C° 0 mm 7 mps 752 mmHg 58%
    05:00 +11°C° 0 mm 7 mps 752 mmHg 61%
    06:00 +11°C° 0 mm 7 mps 752 mmHg 63%
    07:00 +11°C° 0 mm 8 mps 752 mmHg 66%
    08:00 +13°C° 0 mm 8 mps 752 mmHg 64%
    09:00 +15°C° 0 mm 8 mps 752 mmHg 62%
    10:00 +17°C° 0 mm 8 mps 753 mmHg 61%
    11:00 +17°C° 0 mm 8 mps 753 mmHg 60%
    12:00 +18°C° 0 mm 8 mps 753 mmHg 59%
    13:00 +18°C° 0 mm 7 mps 752 mmHg 58%
    14:00 +18°C° 0 mm 7 mps 752 mmHg 59%
    15:00 +18°C° 0 mm 7 mps 752 mmHg 59%
    16:00 +18°C° 0 mm 7 mps 752 mmHg 59%
    17:00 +17°C° 0 mm 7 mps 752 mmHg 63%
    18:00 +16°C° 0 mm 6 mps 752 mmHg 68%
    19:00 +15°C° 0 mm 5 mps 752 mmHg 72%
    20:00 +15°C° 0 mm 5 mps 752 mmHg 73%
    21:00 +14°C° 0 mm 5 mps 752 mmHg 74%
    22:00 +14°C° 0 mm 5 mps 752 mmHg 75%
    23:00 +13°C° 0 mm 5 mps 752 mmHg 76%

    Day after tomorrow, 25 April, Thursday

    Time Temperature Precipitation Wind Pressure Humidity
    00:00 +13°C° 0 mm 5 mps 752 mmHg 77%
    01:00 +13°C° 0 mm 4 mps 752 mmHg 77%
    02:00 +13°C° 0 mm 4 mps 752 mmHg 79%
    03:00 +12°C° 0 mm 4 mps 752 mmHg 81%
    04:00 +12°C° 0 mm 3 mps 752 mmHg 82%
    05:00 +13°C° 0 mm 4 mps 753 mmHg 81%
    06:00 +14°C° 0 mm 4 mps 753 mmHg 79%
    07:00 +14°C° 0 mm 4 mps 753 mmHg 78%
    08:00 +17°C° 0 mm 4 mps 753 mmHg 74%
    09:00 +19°C° 0 mm 3 mps 753 mmHg 69%
    10:00 +20°C° 0 mm 3 mps 754 mmHg 65%
    11:00 +22°C° 0 mm 3 mps 754 mmHg 61%
    12:00 +24°C° 0 mm 2 mps 754 mmHg 58%
    13:00 +25°C° 0 mm 2 mps 754 mmHg 54%
    14:00 +25°C° 0 mm 2 mps 754 mmHg 54%
    15:00 +25°C° 0 mm 2 mps 754 mmHg 53%
    16:00 +26°C° 0 mm 1 mps 754 mmHg 53%
    17:00 +24°C° 0 mm 1 mps 754 mmHg 58%
    18:00 +21°C° 0 mm 2 mps 754 mmHg 64%
    19:00 +20°C° 0 mm 2 mps 754 mmHg 70%
    20:00 +19°C° 0 mm 2 mps 754 mmHg 72%
    21:00 +18°C° 0 mm 2 mps 754 mmHg 75%
    22:00 +17°C° 0 mm 2 mps 754 mmHg 78%
    23:00 +17°C° 0 mm 2 mps 754 mmHg 79%

    26 April, Friday

    Time Temperature Precipitation Wind Pressure Humidity
    00:00 +16°C° 0 mm 2 mps 753 mmHg 81%
    01:00 +15°C° 0 mm 2 mps 753 mmHg 83%
    02:00 +14°C° 0 mm 3 mps 753 mmHg 85%
    03:00 +14°C° 0 mm 3 mps 753 mmHg 87%
    04:00 +13°C° 0 mm 3 mps 752 mmHg 89%
    05:00 +14°C° 0 mm 3 mps 752 mmHg 85%
    06:00 +15°C° 0 mm 4 mps 752 mmHg 81%
    07:00 +18°C° 0 mm 4 mps 752 mmHg 77%
    08:00 +19°C° 0 mm 4 mps 751 mmHg 71%
    09:00 +21°C° 0 mm 4 mps 751 mmHg 66%
    10:00 +23°C° 0 mm 4 mps 751 mmHg 60%
    11:00 +25°C° 0 mm 4 mps 750 mmHg 56%
    12:00 +26°C° 0 mm 4 mps 750 mmHg 52%
    13:00 +27°C° 0 mm 4 mps 750 mmHg 48%
    14:00 +27°C° 0 mm 3 mps 750 mmHg 49%
    15:00 +26°C° 0 mm 3 mps 749 mmHg 50%
    16:00 +26°C° 0 mm 2 mps 749 mmHg 50%
    17:00 +25°C° 0 mm 2 mps 749 mmHg 55%
    18:00 +23°C° 0 mm 1 mps 749 mmHg 60%
    19:00 +20°C° 0 mm 0 mps 749 mmHg 64%
    20:00 +21°C° 0.1 mm 1 mps 749 mmHg 69%
    21:00 +19°C° 0.1 mm 2 mps 749 mmHg 75%
    22:00 +18°C° 0.1 mm 3 mps 749 mmHg 80%
    23:00 +17°C° 0.1 mm 4 mps 749 mmHg 85%

    27 April, Saturday

    Time Temperature Precipitation Wind Pressure Humidity
    00:00 +15°C° 0.1 mm 4 mps 749 mmHg 90%
    01:00 +15°C° 0.1 mm 5 mps 749 mmHg 95%
    02:00 +14°C° 0.1 mm 5 mps 749 mmHg 93%
    03:00 +14°C° 0.1 mm 5 mps 749 mmHg 92%
    04:00 +13°C° 0.1 mm 5 mps 749 mmHg 90%
    05:00 +13°C° 0 mm 5 mps 749 mmHg 89%
    06:00 +13°C° 0 mm 5 mps 750 mmHg 88%
    07:00 +11°C° 0 mm 6 mps 750 mmHg 87%
    08:00 +11°C° 0.1 mm 6 mps 750 mmHg 85%
    09:00 +10°C° 0.1 mm 6 mps 750 mmHg 83%
    10:00 +10°C° 0.1 mm 6 mps 751 mmHg 81%
    11:00 +9°C° 1 mm 6 mps 751 mmHg 83%
    12:00 +9°C° 1 mm 7 mps 751 mmHg 84%
    13:00 +8°C° 1 mm 7 mps 751 mmHg 85%
    14:00 +9°C° 0.1 mm 6 mps 752 mmHg 83%
    15:00 +10°C° 0.1 mm 5 mps 752 mmHg 80%
    16:00 +12°C° 0.1 mm 5 mps 752 mmHg 77%
    17:00 +11°C° 0 mm 4 mps 752 mmHg 80%
    18:00 +11°C° 0 mm 3 mps 752 mmHg 83%
    19:00 +12°C° 0 mm 2 mps 753 mmHg 85%
    20:00 +11°C° 0 mm 1 mps 753 mmHg 87%
    21:00 +11°C° 0 mm 1 mps 753 mmHg 88%
    22:00 +11°C° 0 mm 1 mps 753 mmHg 90%
    23:00 +11°C° 0.1 mm 1 mps 753 mmHg 91%

    28 April, Sunday

    Time Temperature Precipitation Wind Pressure Humidity
    00:00 +9°C° 0.1 mm 2 mps 753 mmHg 93%
    01:00 +9°C° 0.1 mm 2 mps 753 mmHg 94%
    02:00 +9°C° 0 mm 2 mps 754 mmHg 95%
    03:00 +8°C° 0 mm 3 mps 754 mmHg 95%
    04:00 +8°C° 0 mm 3 mps 754 mmHg 96%
    05:00 +9°C° 0 mm 3 mps 754 mmHg 92%
    06:00 +10°C° 0 mm 4 mps 754 mmHg 87%
    07:00 +9°C° 0 mm 5 mps 755 mmHg 83%
    08:00 +12°C° 0 mm 5 mps 755 mmHg 76%
    09:00 +13°C° 0 mm 5 mps 755 mmHg 69%
    10:00 +14°C° 0 mm 5 mps 756 mmHg 62%
    11:00 +15°C° 0 mm 5 mps 756 mmHg 59%
    12:00 +16°C° 0 mm 5 mps 756 mmHg 55%
    13:00 +17°C° 0 mm 5 mps 756 mmHg 52%
    14:00 +16°C° 0.3 mm 5 mps 756 mmHg 54%
    15:00 +17°C° 0.3 mm 4 mps 756 mmHg 56%
    16:00 +17°C° 0.3 mm 4 mps 756 mmHg 58%
    17:00 +14°C° 0.1 mm 4 mps 756 mmHg 64%
    18:00 +13°C° 0.1 mm 3 mps 756 mmHg 69%
    19:00 +12°C° 0.1 mm 2 mps 756 mmHg 75%
    20:00 +10°C° 0 mm 2 mps 756 mmHg 78%
    21:00 +10°C° 0 mm 1 mps 757 mmHg 81%
    22:00 +9°C° 0 mm 1 mps 757 mmHg 84%
    23:00 +9°C° 0 mm 1 mps 757 mmHg 85%
    Show more